CZ-6A DEB, 56677

Orbit data source: Space-Track

CZ-6A DEB, 56677 is space debris in SSO originally from a launch on Fri, 11 Nov 2022 UTC launched from the Taiyaun Space Center, China (TSC). Debris objects in space refer to the collection of defunct objects orbiting the Earth. Examples of debris include non-operational satellites, rocket bodies, and fragments generated from explosions, collisions, or faulty payload assembly.

Loading next visibility...
Identifier
56677, 2022-151AHD
Orbit
SSO
Country
Flag of CNCN / PRC
Related business
Manufacturer
SAST
Mission
Spacecraft
Bus & Motor
Unknown
Mass
Unknown
Launch date (UTC)
2022-11-11 (3 years ago)
Launch vehicle
Unknown
Launch site
Taiyaun Space Center, China (TSC)
Object type
Payload
Rocket body
Debris
Shape & HBR
Unknown shape, 0.1 m
Radar Cross Section
Small (<0.1 m²)

Expand to show TLE details & history
Last TLE update: 2 days ago

TLE from 2 days ago
0 CZ-6A DEB
1 56677U 22151AHD 26128.79886544  .00000430  00000-0  14708-3 0  9992
2 56677  98.6187 153.2635 0161788 169.6295 190.8294 14.34227294159259
Epoch: 2026-05-08T19:10Z
TLE epoch observation values (Epoch: 2026-05-08T19:10:21.974Z)
Latitude
-0.00002°
Longitude
-0.95353°
Altitude
894.371 km
Speed
7.346 km/s
True Right ascension
10h 13m 03s
True Declination
0° 00' 00"
Sunlit
Object was in daylight at epoch
Visualization orbit readout
Latitude
Unknown
Longitude
Unknown
Altitude
Unknown
Speed
Unknown
Apparent Right ascension
Unknown
Apparent Declination
Unknown
Sunlit
N/A
Visualization observer readout
Local Sidereal Time
21:27:16
Azimuth
Unknown
Elevation
Unknown
Doppler factor
Unknown
Orbital elements
Apogee altitude
890.495 km
Perigee altitude
659.044 km
Semi-major axis
7,152.907 km
Eccentricity
0.01618
Inclination
98.6187°
RAAN
153.2635°
Arg. of periapsis
169.6295°
True anomaly
190.48786°
Mean anomaly
190.8294°
Eccentric anomaly
190.65796°
Mean motion
3.58773 °/min
Orbital period
100.34 mins
BSTAR
0.00014708
Loading maneuver chart data...
Computing Atmospheric mass density...
Loading historical data...
Loading historical data...
Loading historical data...
Loading historical data...
Loading historical data...
Loading historical data...
Loading historical data...

Documentation

Showing up to 5 results
|